Theta_e
333 334 333 333 334 337 338 337 338 338 337 337 336 335 335 334 334 334 332 330 329 329 329 330 331 332 330 329 330 331 331 331 332 331 332 332 333 340 347 346 345 344 346 346 345 344 343 342 342 341 340 340 338 337 338 338 337 338 337 336 335 333 334 334 332 332 332 331 329 328 328 328 329 331 332 332 333 335 335 336 336 336 335 335 336
334 333 331 331 333 335 337 337 336 337 337 338 338 339 337 335 336 336 337 333 334 335 338 337 336 336 332 331 330 330 331 330 329 328 332 333 333 337 347 345 344 344 344 346 346 345 345 344 343 342 342 341 341 339 339 338 337 338 338 337 335 334 334 334 333 333 332 331 329 329 328 328 329 330 332 331 332 334 335 335 336 336 335 335 335
334 333 332 333 333 333 333 334 334 336 337 337 336 337 336 335 335 335 335 336 336 336 337 336 336 337 336 335 334 333 332 331 330 330 331 333 334 334 341 347 345 345 344 343 345 345 343 345 344 343 341 342 341 341 340 338 337 338 338 337 337 335 333 334 334 333 333 332 330 329 329 329 329 329 331 331 331 333 335 335 335 335 335 335 335
336 334 333 332 332 332 334 335 336 336 336 337 337 337 337 338 337 337 336 335 335 334 335 334 335 336 335 335 334 333 331 331 332 332 331 332 334 335 336 342 345 345 345 343 343 345 343 343 344 342 341 341 341 341 340 339 338 338 339 338 338 334 333 333 334 333 333 332 330 330 330 329 329 329 329 331 330 331 334 335 335 335 335 335 334
335 336 340 332 333 332 334 335 336 336 337 338 339 336 335 336 336 335 334 334 332 333 335 334 333 334 334 335 334 334 334 332 332 331 331 331 332 334 335 337 339 343 343 343 342 342 343 341 343 343 343 342 341 340 341 341 339 338 338 339 339 334 333 332 333 333 332 332 331 330 330 330 330 329 329 330 330 331 333 334 334 335 335 335 335
337 334 334 333 332 334 334 334 337 338 337 338 335 335 334 335 334 332 337 332 331 332 331 332 332 333 333 334 333 333 333 334 332 332 331 331 330 334 335 334 335 336 338 343 343 341 341 342 344 344 342 343 342 342 341 341 340 339 338 337 338 335 334 333 332 332 332 332 332 330 331 331 330 330 329 329 329 330 333 334 334 334 334 334 334
340 336 335 332 331 332 332 334 337 336 337 336 335 335 334 334 332 332 330 329 328 331 331 330 329 331 332 333 333 334 334 334 334 332 332 332 329 332 333 335 335 335 336 335 340 342 341 341 343 342 342 342 342 342 342 340 340 340 339 338 336 336 335 334 333 333 332 332 332 331 331 331 331 331 330 330 329 330 331 334 334 334 334 334 334
337 336 334 334 334 333 333 337 338 338 336 335 335 335 332 332 331 331 329 329 330 330 331 330 330 330 331 332 332 333 333 333 333 333 334 331 332 332 332 331 333 334 339 335 334 336 340 341 340 340 341 342 343 341 342 341 340 340 339 339 338 337 336 335 334 333 333 332 332 331 331 332 331 331 331 330 330 330 331 333 334 334 334 333 333
336 338 336 337 335 333 334 337 338 336 333 332 332 332 330 333 331 331 330 327 329 329 330 330 330 331 331 331 331 332 331 332 332 333 334 330 331 331 331 332 332 338 332 334 335 335 338 340 341 341 340 340 341 342 342 342 342 342 340 338 338 337 337 336 335 334 334 332 332 332 332 332 331 332 331 331 330 330 331 332 333 333 333 333 333
334 337 337 341 335 333 334 336 337 335 334 333 333 332 330 329 330 330 331 329 328 329 329 330 331 331 330 330 330 330 330 331 331 333 332 333 333 332 333 332 332 332 331 331 333 334 334 336 339 341 341 339 337 340 342 343 342 341 341 339 338 337 337 337 337 335 334 333 332 332 332 332 332 332 331 330 331 331 331 331 332 333 333 333 333
335 337 336 337 335 335 337 336 336 334 333 332 331 331 331 330 330 330 331 330 328 330 330 330 330 329 329 329 329 329 330 330 331 331 331 332 333 335 334 333 332 331 331 330 330 330 332 333 333 334 335 339 340 340 340 341 342 342 341 342 340 339 337 337 337 336 335 334 333 332 332 332 332 332 331 331 331 331 331 331 331 333 333 333 332
336 336 337 335 333 333 332 332 332 331 330 329 328 328 328 328 328 329 328 329 330 330 329 328 327 325 326 327 327 327 327 328 327 329 331 331 332 332 333 334 331 332 331 332 331 331 331 332 334 334 334 336 338 339 339 340 339 340 342 340 339 339 337 337 339 337 335 334 333 332 332 332 332 332 331 332 331 331 331 331 331 332 333 333 332
336 334 332 335 331 330 329 330 330 330 328 327 327 326 327 327 326 327 327 325 326 328 327 327 323 323 324 323 324 325 326 326 327 327 327 328 330 331 332 332 332 332 333 332 331 331 332 332 333 333 333 333 334 337 337 337 338 339 341 339 339 338 338 337 338 338 337 335 334 333 332 333 332 332 332 331 331 331 331 330 331 331 332 332 332
332 331 330 330 329 327 327 326 327 327 327 326 326 327 324 324 325 323 325 324 324 326 324 326 322 320 318 319 319 322 322 324 326 326 327 327 328 329 330 330 330 331 332 331 330 330 330 331 331 331 331 331 332 331 333 335 336 338 340 339 340 339 339 338 338 339 338 336 335 333 333 333 333 332 333 332 332 331 331 330 331 331 332 332 332
328 329 327 327 326 325 325 325 325 326 323 322 322 322 322 322 322 321 320 322 323 325 322 324 320 320 316 313 312 317 319 318 323 324 326 326 326 327 329 328 326 327 331 331 331 330 330 330 330 330 330 331 331 331 331 333 333 335 337 338 339 339 339 338 338 340 339 338 336 335 333 333 333 333 333 333 332 332 331 331 331 331 331 332 332
326 325 324 324 324 323 323 322 322 323 321 320 319 319 320 320 321 321 320 318 318 319 321 321 320 319 313 313 314 317 314 314 317 321 322 324 324 325 326 323 322 323 328 329 330 331 331 331 330 330 330 330 331 331 331 331 333 335 334 333 335 337 339 339 339 337 338 338 336 335 333 333 334 333 333 332 332 332 332 331 331 331 331 332 332
323 324 324 322 322 322 321 320 320 320 320 318 318 318 319 319 320 319 318 315 315 315 317 319 318 321 319 314 312 314 314 315 317 315 318 320 321 322 325 321 320 321 325 324 326 326 328 328 330 331 331 331 330 330 331 331 331 334 334 334 335 336 337 339 337 338 340 338 337 336 334 333 334 333 333 332 332 332 332 331 331 331 332 333 333
321 321 322 322 319 319 319 319 318 319 318 317 317 317 317 317 317 316 316 316 314 313 312 316 318 317 318 320 320 314 312 315 314 308 315 318 319 320 320 318 318 319 322 319 320 320 322 323 325 328 331 332 332 331 330 331 332 331 331 331 331 333 335 336 338 338 341 338 339 338 336 334 334 333 333 333 333 332 332 332 331 331 332 332 333
319 319 320 320 318 318 318 318 318 317 319 316 315 315 316 316 316 315 314 315 314 310 310 311 312 314 315 315 317 318 318 315 309 311 308 313 315 315 314 315 315 318 316 317 318 318 319 321 322 325 328 331 332 331 331 331 333 333 335 334 332 327 327 328 334 340 339 340 339 338 338 336 335 333 334 334 333 333 332 332 332 332 331 332 333
319 318 319 320 318 316 316 316 316 317 317 314 314 315 315 315 315 313 314 314 313 310 309 310 308 309 313 312 312 314 314 315 314 312 310 307 308 311 313 313 313 314 315 315 315 316 317 319 321 323 324 327 331 332 332 331 331 331 332 331 330 328 328 327 326 327 334 338 339 337 338 336 337 335 335 334 333 332 332 332 332 331 331 332 332
318 318 317 317 319 315 314 314 315 315 317 314 314 314 313 312 311 311 311 312 313 312 309 308 308 307 308 309 309 310 310 311 311 311 308 306 305 306 307 310 311 311 313 314 314 314 316 316 321 318 320 324 324 327 327 327 329 330 331 328 328 328 327 327 322 320 319 331 336 338 336 337 336 337 336 335 333 333 333 332 332 332 332 332 332
316 316 316 316 315 315 314 314 314 316 316 313 313 313 312 311 311 311 310 310 310 311 310 308 309 308 309 309 308 308 308 308 308 307 307 308 304 304 306 306 304 307 311 310 310 312 312 314 314 314 316 317 318 318 318 318 318 320 321 322 324 325 328 327 320 319 320 320 329 334 335 335 337 336 337 335 335 334 333 333 333 333 333 332 331
315 314 314 314 314 316 313 314 314 317 314 312 312 311 311 310 310 309 309 309 309 309 310 309 309 309 308 308 308 308 307 306 305 305 304 303 303 304 304 304 303 303 306 307 308 310 309 312 310 311 315 311 312 313 313 313 315 315 316 316 317 318 322 324 320 317 317 322 324 331 335 335 336 337 337 336 334 335 335 334 334 334 333 333 332
313 312 312 313 313 312 313 312 313 311 311 311 311 311 310 309 309 309 308 309 310 311 308 308 308 307 306 306 306 306 305 305 305 305 302 301 302 300 300 301 301 302 304 304 306 306 307 307 307 309 311 308 308 310 310 310 311 313 313 314 316 317 320 322 320 319 316 318 321 324 332 336 335 335 335 335 336 334 335 335 334 335 334 333 333
311 311 310 311 312 311 311 310 311 312 311 310 310 309 308 307 308 308 308 307 308 308 307 306 306 305 304 305 305 304 303 305 304 302 301 300 299 296 298 299 297 298 300 301 301 303 307 305 306 306 307 305 306 306 307 307 308 311 313 313 315 315 316 318 319 320 318 316 316 321 326 332 336 335 335 335 335 335 335 333 329 326 328 327 329
310 310 310 312 311 311 311 310 310 310 311 310 309 309 308 308 307 307 307 307 307 306 306 306 305 304 304 302 302 303 302 303 302 301 299 298 296 296 296 297 297 297 298 298 300 299 301 303 304 305 305 304 304 304 304 305 306 310 311 311 311 313 313 313 315 316 316 316 315 318 320 323 329 333 333 334 332 330 329 325 322 322 321 320 320
310 311 312 310 311 311 310 309 309 308 308 307 309 307 307 307 307 307 308 307 306 306 305 304 304 302 301 301 302 301 301 301 301 300 300 299 297 297 296 293 294 296 296 297 297 298 298 301 303 303 303 304 303 303 304 305 307 310 311 308 308 311 311 311 313 315 314 314 313 313 313 315 317 321 324 325 324 321 323 325 325 321 321 320 320
311 310 310 309 308 308 308 308 308 308 308 307 307 307 307 306 305 305 305 308 304 303 303 303 301 301 300 300 300 299 300 300 301 300 300 300 299 299 298 296 293 291 294 294 295 296 299 298 300 302 302 302 303 303 306 306 304 309 310 307 307 308 310 310 311 312 313 313 313 314 315 313 312 314 316 319 324 324 324 326 324 322 320 320 323
311 310 308 308 307 306 306 306 306 306 307 307 307 306 305 304 304 303 302 303 304 302 302 301 301 301 300 300 299 300 299 300 300 300 300 299 299 299 299 296 296 293 291 291 293 293 296 298 296 299 301 301 302 303 303 303 306 307 306 306 306 307 309 310 309 309 310 311 312 311 312 315 316 314 318 322 325 325 324 323 323 322 321 322 325
310 308 305 305 305 308 304 304 305 305 305 306 306 305 304 303 303 302 302 302 301 302 302 301 300 301 300 299 299 299 299 298 298 299 299 299 298 298 298 298 298 294 293 291 291 295 295 297 298 297 300 300 302 303 303 303 307 307 306 305 306 306 308 308 307 307 308 310 308 307 308 310 312 317 322 323 323 323 322 321 320 320 321 324 327
306 303 303 303 303 303 303 303 303 303 304 304 305 304 303 302 302 301 301 301 300 300 301 301 300 300 298 298 298 298 298 297 298 298 299 299 298 298 298 298 297 297 295 294 290 295 298 295 298 300 299 300 302 302 302 303 305 305 304 304 304 307 308 306 307 307 307 308 307 310 312 310 309 311 313 318 321 321 322 322 321 322 326 327 323
302 302 302 302 302 301 302 302 302 302 302 302 303 303 302 301 301 301 300 300 300 299 299 300 300 299 298 297 297 297 297 297 297 297 296 297 298 298 298 298 298 297 297 295 293 292 297 297 298 299 301 301 302 301 300 301 303 305 302 303 303 307 304 303 305 307 307 308 308 307 308 307 306 309 312 316 316 319 321 321 322 324 324 321 318
302 301 301 300 301 301 301 302 300 300 300 301 301 301 302 301 301 300 300 299 298 298 299 298 299 298 298 297 297 297 297 296 296 296 296 296 297 298 298 298 297 297 297 295 293 293 296 299 299 299 301 301 300 301 299 300 300 301 303 302 302 302 302 302 303 305 306 306 304 303 304 304 305 309 313 313 317 321 320 318 319 319 319 317 315
301 300 300 300 300 300 299 299 299 299 300 300 300 301 300 300 299 300 299 298 297 297 297 297 297 298 297 296 296 296 296 295 295 295 295 296 296 296 296 297 296 296 297 296 294 294 293 297 297 299 300 301 298 300 298 298 298 300 300 300 301 301 302 302 302 303 305 304 303 303 304 304 304 306 306 306 306 308 312 312 311 311 316 316 310
301 300 299 299 299 299 298 298 298 298 298 299 299 300 299 299 298 298 298 297 297 297 296 296 297 297 296 296 295 295 296 294 294 294 295 295 295 295 295 295 295 295 297 297 295 293 293 294 297 296 296 297 296 297 298 299 299 299 298 298 299 301 302 302 302 303 303 303 303 303 303 303 304 304 303 303 304 305 306 309 310 309 310 312 310
299 299 299 298 298 297 297 296 296 296 297 298 298 299 299 298 298 297 297 297 297 297 297 296 296 296 295 295 295 294 294 293 293 293 293 294 294 295 294 295 295 295 296 296 297 295 295 293 295 295 296 296 297 298 298 299 298 298 298 298 299 300 300 301 301 302 302 303 303 303 303 304 303 302 302 302 303 304 305 306 308 308 308 310 311
299 298 299 298 297 297 296 295 295 295 295 296 297 298 298 298 298 297 297 296 296 296 296 297 300 296 296 295 295 294 293 292 292 292 293 293 294 295 294 295 295 296 296 296 295 295 294 293 294 296 296 296 297 297 298 296 297 297 298 297 298 298 299 300 301 302 303 303 303 303 302 302 302 302 302 303 303 304 304 305 306 307 308 309 309
298 298 297 297 298 296 296 295 295 294 294 295 295 296 297 298 297 297 297 297 296 296 296 296 296 296 296 295 295 294 293 292 292 292 293 292 294 294 294 294 295 295 294 294 295 295 294 294 294 294 296 295 296 296 297 297 296 295 295 296 297 298 298 298 299 302 303 302 301 301 302 302 303 303 303 303 303 303 303 304 305 307 308 308 308
297 297 297 296 297 296 295 295 294 294 294 294 294 294 295 296 296 296 296 295 296 296 295 296 296 295 295 295 295 294 293 292 292 292 292 292 294 293 295 294 295 294 293 293 294 294 294 293 294 294 294 296 296 295 297 298 297 297 294 294 294 296 297 297 297 299 300 300 301 301 301 302 303 304 304 303 303 305 306 305 305 306 307 307 307
297 296 296 296 296 296 295 295 295 295 294 293 293 293 293 294 296 296 296 296 295 295 295 295 295 295 295 295 295 295 295 294 293 292 292 292 293 293 293 294 294 294 293 294 293 293 293 293 293 293 294 294 295 297 298 297 295 295 296 294 292 293 294 296 297 297 298 299 299 300 302 303 303 306 305 306 306 306 307 307 307 307 308 308 307
298 296 296 295 295 294 294 294 293 294 294 294 294 292 292 293 294 295 295 295 295 294 294 294 294 294 294 294 295 296 300 302 300 297 296 296 294 292 292 293 294 294 293 293 293 293 293 292 292 293 293 293 294 295 294 294 293 293 295 295 293 294 294 294 296 298 299 298 299 300 300 302 303 303 303 304 306 307 308 309 310 309 308 307 306
296 296 295 295 294 293 293 293 293 293 293 294 296 295 295 295 293 296 296 295 294 294 294 293 293 294 294 293 298 301 301 301 300 297 294 295 296 295 293 292 293 293 293 293 292 292 292 292 292 292 292 292 293 294 294 295 296 296 294 294 292 293 294 294 295 297 300 299 299 298 299 302 301 301 302 303 305 307 308 311 312 311 309 305 306
295 295 293 292 292 292 292 292 292 292 292 294 294 292 292 296 295 295 295 294 293 293 293 292 292 293 293 293 292 297 298 298 298 296 294 294 293 293 294 296 297 294 293 292 292 292 292 292 292 292 292 292 293 295 295 295 296 295 294 294 293 293 292 291 290 295 303 300 298 297 297 300 301 300 301 302 304 305 307 310 309 308 306 306 305
294 293 292 292 292 291 291 291 291 292 292 295 292 293 292 293 298 297 295 295 294 293 292 292 293 292 291 292 292 294 293 297 296 292 293 294 293 293 293 294 294 294 294 293 292 291 292 291 291 292 292 292 293 294 295 295 294 294 294 293 293 292 292 291 292 291 296 299 296 295 296 299 301 301 301 302 304 305 307 307 306 306 305 305 305
293 292 292 291 291 291 291 291 291 291 291 293 292 293 293 293 295 297 295 294 294 293 292 292 292 290 290 292 292 293 292 298 298 291 290 290 294 294 295 295 295 296 292 292 293 294 293 292 292 292 293 293 293 294 296 296 296 294 293 292 293 293 293 292 292 293 295 298 296 295 294 298 300 300 300 303 304 305 307 306 305 306 305 304 304
293 293 292 291 291 292 292 291 291 292 292 293 293 294 294 294 295 296 294 294 294 293 293 292 292 291 290 290 291 291 291 291 292 291 290 290 290 291 291 291 291 294 293 293 293 293 294 294 292 291 293 295 294 295 297 297 295 294 293 292 293 293 292 292 293 294 296 298 294 294 293 296 299 301 301 304 305 306 308 307 305 305 305 304 303
292 291 291 291 291 292 291 292 292 292 292 292 292 293 294 294 294 295 294 295 294 293 292 292 291 292 290 291 290 290 291 291 294 292 290 290 289 290 290 290 291 291 291 292 292 293 293 293 292 292 293 294 295 296 297 298 297 296 295 294 294 294 294 294 294 295 295 296 295 295 291 295 297 297 299 302 305 307 309 307 306 305 305 304 303
293 292 291 291 291 291 292 292 291 290 290 291 292 292 293 293 294 296 294 293 292 293 292 292 291 290 291 292 292 291 291 291 294 291 292 292 289 289 289 289 290 290 291 295 294 294 294 293 292 292 292 293 294 294 296 297 297 297 297 296 294 293 292 291 290 292 291 294 296 297 292 291 295 295 297 302 306 308 306 304 303 304 305 304 303
293 291 291 291 292 292 291 290 289 289 289 291 291 292 292 292 293 292 292 293 291 290 290 291 292 292 292 294 293 291 291 291 293 290 290 293 289 289 288 288 289 289 290 292 293 293 293 293 292 292 292 292 293 293 294 294 295 297 296 292 291 291 290 288 289 289 289 292 295 296 292 290 293 295 295 302 300 299 300 301 302 300 300 301 302
293 293 292 291 290 291 290 289 290 290 288 291 291 292 292 292 293 291 290 291 289 289 290 290 290 290 292 299 300 292 291 291 291 290 290 292 288 288 287 287 288 288 289 290 291 293 293 293 292 292 292 292 293 294 295 295 295 297 295 290 291 291 289 289 288 288 288 291 293 295 291 290 292 295 296 301 299 298 299 299 300 301 301 302 301
293 293 294 291 290 289 290 292 298 291 289 292 292 291 291 292 293 290 290 290 290 288 289 291 290 290 290 294 297 295 293 292 290 290 290 291 288 287 286 286 287 287 288 288 289 290 290 290 290 291 292 293 295 295 296 295 295 298 296 294 293 291 289 289 289 287 286 288 292 294 289 290 292 294 298 301 297 298 298 298 299 299 300 302 305
Wind_Speed
3 3 3 3 2 1 1 3 4 5 3 4 4 4 4 3 3 4 4 4 3 4 4 4 3 4 4 4 3 3 4 5 6 5 4 5 6 8 13 13 13 13 13 13 14 14 14 13 14 14 13 13 14 14 14 12 11 12 12 11 10 8 10 9 8 8 8 7 6 5 6 7 7 7 5 4 5 3 4 4 4 5 5 4 5
4 4 3 2 2 2 1 0 2 4 3 4 4 4 5 4 4 3 3 3 3 4 3 3 3 3 4 3 3 3 4 4 4 3 4 5 5 6 12 13 14 13 13 13 14 13 14 13 13 15 14 14 13 16 15 13 11 13 13 12 11 9 10 10 9 9 9 9 6 6 7 7 6 9 7 4 3 4 4 5 5 6 6 6 5
4 2 2 2 2 1 0 1 1 0 3 2 2 1 1 1 2 3 3 3 4 3 3 4 4 5 4 4 4 4 5 5 4 3 2 4 4 4 6 13 12 13 13 13 13 13 11 13 15 14 14 14 13 16 15 14 12 13 13 13 11 9 11 11 10 9 10 10 8 7 7 8 8 7 9 7 4 5 5 5 6 6 7 7 7
4 2 1 0 0 0 0 0 1 0 1 1 0 1 1 2 2 2 2 2 3 3 2 3 4 5 4 4 3 3 3 4 5 4 2 3 4 5 5 6 11 12 12 13 12 11 14 12 13 12 13 15 14 16 16 15 15 15 15 14 13 12 13 13 11 10 10 11 9 9 9 8 9 9 8 8 6 6 6 6 6 7 8 7 8
2 3 2 1 0 2 3 2 2 2 0 1 2 2 2 3 3 1 2 2 3 4 4 4 4 6 5 5 4 5 3 3 4 4 4 3 4 4 5 5 5 9 12 12 10 11 10 13 17 15 15 14 16 16 17 17 17 16 16 16 15 14 14 13 12 11 11 11 11 10 10 10 10 9 9 9 6 6 6 6 7 8 8 9 9
0 1 1 1 1 0 1 2 3 3 1 2 2 2 3 4 3 3 3 3 4 4 5 5 5 5 5 4 4 5 5 4 4 5 4 5 2 3 5 5 5 5 5 9 11 12 13 13 15 15 14 16 17 18 17 18 17 16 16 16 13 16 15 14 13 13 12 12 12 11 11 11 11 10 9 9 9 7 6 8 7 8 9 9 9
3 3 3 3 2 2 3 2 3 3 2 3 4 4 4 3 3 4 3 4 3 3 3 4 4 5 5 5 5 5 4 5 4 4 4 4 3 3 5 5 5 4 5 5 7 12 13 13 14 14 16 16 17 17 17 19 19 16 18 15 15 15 15 15 14 14 13 13 13 12 13 12 11 11 11 9 9 9 8 9 9 9 10 11 10
2 2 2 2 3 4 2 3 3 3 4 4 3 4 3 3 3 3 4 4 4 5 5 5 4 5 5 5 5 5 5 5 5 4 4 3 4 4 5 5 4 5 5 5 5 6 12 14 14 15 15 16 17 18 17 18 19 18 16 14 16 15 14 16 15 15 14 13 14 13 13 13 13 13 12 12 11 10 10 10 10 10 11 11 11
3 2 3 3 4 3 2 2 2 2 3 3 4 2 2 3 4 3 3 3 4 4 6 5 5 5 5 5 5 5 5 5 6 5 4 3 3 4 4 5 5 5 5 5 5 5 7 13 14 14 15 16 15 17 18 19 19 15 17 13 15 16 15 17 17 17 15 14 14 14 14 14 14 13 13 13 12 11 11 12 10 10 12 12 12
2 2 4 3 1 1 1 1 2 2 4 5 5 4 3 3 4 4 4 4 5 5 6 6 5 5 6 6 6 5 5 5 5 5 5 5 5 5 5 5 5 5 5 5 5 5 6 8 12 14 15 14 14 15 18 19 20 19 18 16 14 13 15 18 17 17 15 14 15 15 15 14 13 14 14 14 13 12 13 13 11 12 12 13 12
3 2 3 2 2 4 6 5 5 6 7 7 7 7 7 6 6 6 6 4 4 6 6 6 6 5 5 7 6 6 6 4 4 5 5 4 6 6 5 5 4 4 4 5 5 5 6 6 6 5 7 12 14 15 17 18 19 20 19 17 16 18 17 18 18 18 17 16 15 15 14 13 14 14 15 14 14 13 14 13 12 13 13 14 13
4 5 6 6 6 6 6 6 6 7 8 8 7 7 7 7 7 6 7 6 7 7 8 7 5 5 6 7 6 6 5 4 3 3 5 6 5 5 6 5 4 5 5 6 5 5 6 7 6 6 6 7 12 14 16 16 16 17 19 19 19 16 18 17 17 18 19 18 15 15 14 15 14 14 15 15 15 15 15 15 13 13 14 14 14
5 6 6 6 6 6 7 6 6 7 7 7 6 7 7 6 4 4 6 6 7 7 9 6 6 7 5 4 6 5 4 2 5 8 7 6 5 5 5 5 6 6 6 5 5 5 5 6 6 5 6 6 7 11 14 15 15 16 19 21 21 20 19 19 18 19 21 19 17 17 16 16 16 14 16 16 16 16 16 16 14 13 13 15 15
5 6 7 7 7 7 7 6 6 6 7 6 7 7 8 7 5 5 4 5 4 7 7 6 5 5 5 6 6 5 3 3 9 10 8 6 6 6 6 5 7 8 7 6 6 5 5 6 5 6 6 5 6 6 6 8 10 15 18 18 20 20 19 19 19 20 20 20 20 18 17 18 17 16 17 17 17 17 17 17 15 14 14 15 15
7 7 8 7 6 6 6 6 7 6 7 8 7 8 7 6 6 5 4 3 3 6 8 7 4 5 2 1 4 7 6 6 5 10 7 6 6 6 6 6 9 8 7 6 6 6 6 5 6 6 6 7 7 6 6 7 8 12 13 16 17 18 20 22 21 21 20 20 20 20 19 18 18 18 19 18 18 18 18 18 17 16 15 15 16
7 7 7 7 7 7 6 7 7 7 7 7 7 7 7 7 6 7 3 6 5 6 7 7 6 6 5 1 3 2 5 3 8 7 2 8 5 7 5 8 10 10 8 8 8 7 7 6 7 7 7 7 7 7 7 7 9 11 13 14 14 18 22 23 24 21 20 19 19 21 18 18 20 19 18 18 17 16 16 17 18 17 16 16 17
7 8 7 7 7 7 7 7 7 7 6 7 7 7 6 6 7 7 8 3 5 4 6 7 9 8 4 3 4 2 3 7 9 5 4 6 3 5 6 10 11 10 7 9 9 8 8 9 8 8 8 7 7 7 7 7 7 7 9 12 14 16 19 21 21 22 21 19 20 20 18 18 20 18 18 16 17 16 17 18 18 18 18 18 18
8 8 8 7 7 7 7 7 7 7 7 6 6 7 8 8 7 6 7 6 4 7 6 6 6 8 8 5 4 2 6 6 4 6 4 5 1 6 6 8 8 9 8 10 11 11 10 10 10 11 10 9 7 7 7 7 6 7 7 8 13 14 16 17 19 21 22 21 22 21 21 21 20 19 19 18 19 20 19 19 19 19 19 20 19
7 7 7 6 7 7 7 7 6 6 6 7 8 7 6 6 5 7 6 6 6 7 6 6 4 6 6 6 5 5 5 6 5 6 10 2 2 6 4 6 8 5 8 9 10 10 10 9 10 10 11 10 8 7 7 8 10 11 14 13 13 13 13 15 19 22 23 23 24 22 23 24 22 19 20 20 20 20 20 20 20 19 20 19 20
7 7 7 7 7 7 6 6 7 6 7 7 7 6 6 6 6 6 6 6 6 6 5 5 6 4 5 6 6 5 6 4 3 4 5 11 9 3 0 7 7 3 7 7 10 11 10 10 9 10 10 11 10 8 8 8 7 8 8 12 13 14 14 14 16 18 20 23 22 23 22 21 23 22 22 21 21 21 21 21 20 21 20 19 21
7 7 7 7 6 6 5 6 7 6 6 7 6 7 7 7 7 7 6 5 5 4 5 5 4 4 4 6 4 5 4 3 5 6 4 6 9 11 14 9 1 3 7 6 8 9 8 9 7 10 8 10 12 12 12 12 11 10 9 14 16 15 14 15 16 18 18 21 25 26 22 23 22 23 24 24 21 21 21 21 21 21 20 20 21
7 7 7 6 5 5 6 6 6 7 7 7 7 7 6 6 5 4 4 4 3 4 5 4 5 4 5 5 6 5 4 5 7 8 5 4 7 11 10 15 16 9 7 10 11 8 9 7 8 9 7 10 11 12 12 12 12 12 16 24 23 23 20 16 15 16 19 18 21 22 22 22 24 25 25 24 24 22 23 21 23 23 23 21 21
6 6 6 5 5 5 6 6 7 7 8 8 6 6 5 5 5 5 5 4 4 5 5 5 6 8 9 8 8 9 8 8 8 7 5 5 8 8 10 10 11 15 8 10 10 7 10 6 9 9 7 10 11 11 12 12 13 17 26 24 24 24 23 20 17 17 16 18 18 18 21 25 25 24 24 24 25 25 26 24 25 25 25 23 23
6 6 6 5 6 6 6 7 8 8 8 6 6 5 5 5 5 5 6 6 6 7 7 9 8 8 9 8 8 8 8 8 7 7 7 7 7 8 8 10 8 5 10 11 7 8 9 8 9 10 9 10 10 10 11 12 12 23 20 22 22 22 21 22 21 19 18 17 17 17 22 25 25 23 23 23 25 26 26 27 27 26 25 26 26
6 6 5 5 5 7 7 7 7 7 7 6 5 5 5 5 5 6 7 8 8 8 8 8 9 8 7 7 7 8 8 7 7 7 6 6 7 7 7 6 8 11 7 8 8 10 5 9 9 10 9 11 11 11 11 11 11 18 23 16 23 20 21 23 23 22 21 19 18 19 19 24 25 24 24 23 24 25 26 25 23 23 24 22 23
6 5 4 5 5 5 6 7 6 7 6 6 5 4 5 5 6 7 8 7 8 8 9 9 9 8 7 7 8 7 7 7 6 7 7 7 7 7 9 7 6 8 8 7 7 9 4 8 9 9 9 11 12 12 11 11 11 18 24 18 15 19 20 20 20 21 21 21 21 20 18 19 23 25 21 22 20 18 21 21 21 20 19 20 21
6 4 4 5 5 6 6 7 7 6 6 5 5 5 5 6 7 8 8 7 8 9 9 10 9 9 9 8 8 8 7 7 6 7 6 6 6 6 8 12 9 6 9 7 5 6 10 9 9 10 10 11 10 10 12 12 14 20 22 14 12 17 18 19 20 21 22 21 21 21 20 19 19 20 22 22 16 17 18 22 21 20 21 21 20
5 6 5 6 6 7 7 7 6 5 4 5 5 6 7 9 9 9 9 7 9 10 8 9 9 10 9 8 7 7 6 6 6 6 6 6 6 6 7 7 9 12 12 10 7 7 8 11 8 5 11 12 11 10 13 14 11 21 18 11 11 12 17 19 21 21 22 21 21 21 21 19 18 21 23 20 21 25 18 16 19 22 22 21 21
6 6 6 6 7 7 7 7 7 6 6 6 7 8 9 9 9 9 8 7 8 8 7 8 8 8 7 7 6 5 6 5 6 6 6 6 6 6 7 7 8 8 10 12 12 12 11 9 12 11 11 13 12 11 11 11 13 17 13 12 11 10 14 20 22 20 20 20 21 22 21 21 20 20 23 23 23 23 19 17 18 21 21 19 24
6 6 7 8 7 8 7 7 7 7 7 7 8 8 9 8 8 7 6 7 8 7 7 8 8 7 7 7 6 6 6 6 6 6 6 7 7 7 7 7 7 7 7 10 13 9 12 10 8 13 13 12 11 11 10 11 15 17 13 13 12 11 19 21 20 20 19 20 20 21 21 20 20 21 24 23 25 22 21 23 19 20 22 23 26
7 8 8 8 7 7 7 7 8 8 8 8 8 8 8 8 7 7 7 7 8 8 7 7 7 6 6 8 7 7 6 7 6 6 8 7 7 6 6 7 6 6 7 7 11 8 7 14 12 10 12 14 12 10 11 11 13 18 14 13 13 19 23 15 18 19 19 19 19 17 21 22 20 20 22 24 23 22 27 27 24 21 26 24 24
8 8 8 7 7 7 7 8 8 8 8 7 7 7 8 7 7 7 7 7 8 8 7 6 6 7 7 8 8 7 7 6 7 8 7 7 6 5 5 4 6 7 7 8 9 13 10 10 12 13 13 13 13 13 13 11 13 18 12 12 14 19 13 11 15 18 19 17 15 21 23 22 20 20 20 22 22 24 24 23 26 24 23 23 23
8 9 8 7 7 7 8 8 8 8 8 8 6 7 8 8 7 7 7 7 8 7 7 8 7 7 8 8 8 8 7 7 6 6 6 5 5 4 4 4 5 6 6 8 9 11 9 8 9 10 12 12 12 12 14 13 13 13 13 11 12 10 11 11 11 14 16 18 21 20 20 21 22 21 18 18 21 24 21 24 27 25 22 22 21
9 8 8 6 7 8 8 8 8 8 8 8 7 7 8 8 6 5 7 7 8 8 7 8 7 7 7 8 8 7 6 6 5 6 5 5 5 5 5 5 6 6 7 7 9 10 13 11 10 9 10 11 12 12 13 15 15 13 14 14 11 10 10 10 11 11 15 17 19 20 19 20 21 20 18 17 16 19 20 23 25 21 20 22 23
8 8 7 7 7 8 8 8 8 8 8 7 6 7 6 7 7 6 6 7 8 8 8 7 7 6 7 8 7 6 4 5 4 4 4 5 5 5 5 5 5 6 6 6 7 10 12 11 11 11 10 11 11 13 14 11 13 14 15 13 13 12 10 10 10 9 14 17 18 19 20 20 20 21 21 19 18 17 19 21 22 24 25 24 22
9 7 7 7 7 8 8 8 8 7 7 7 7 6 6 6 7 7 6 7 7 7 6 6 6 6 7 7 6 5 4 4 4 4 4 5 5 5 5 5 5 5 5 5 7 7 9 11 10 10 10 11 11 12 12 11 12 13 12 13 11 11 11 11 11 10 13 18 20 20 20 20 20 21 21 21 19 17 17 20 23 25 26 27 24
8 8 7 6 7 8 8 7 7 7 6 6 7 6 5 5 6 6 6 6 6 6 6 5 6 5 6 6 5 4 4 4 4 5 5 5 5 5 5 5 5 5 5 5 6 7 8 10 11 10 10 9 10 11 11 14 15 12 12 13 13 13 13 11 9 10 17 21 19 18 19 19 19 20 20 20 19 18 17 18 21 24 25 24 27
8 7 7 6 7 8 7 7 7 6 6 6 6 5 5 5 6 6 5 5 5 6 5 5 4 4 4 4 3 3 4 4 5 5 5 5 5 5 6 6 6 5 6 6 6 7 7 8 10 10 10 11 12 10 12 13 16 17 17 14 12 12 12 12 9 6 6 9 11 11 12 14 16 18 19 19 19 19 17 17 20 23 24 25 25
9 8 7 8 6 7 7 7 7 6 6 6 6 6 5 5 5 6 6 5 5 5 4 5 4 4 3 2 2 2 3 3 4 4 5 5 5 6 6 6 6 6 6 6 7 7 8 9 9 9 11 9 9 12 11 12 10 10 14 18 17 13 9 8 13 10 8 11 13 16 14 15 18 16 16 19 17 17 18 17 19 22 24 24 24
8 8 8 8 6 7 7 7 5 5 6 6 5 5 4 4 4 4 4 5 5 5 5 4 3 3 3 3 2 2 1 2 3 4 4 6 6 6 6 5 6 6 6 7 7 7 8 8 9 11 10 11 10 9 8 9 12 11 8 12 17 17 17 14 9 12 12 11 12 11 11 11 11 13 15 14 17 19 19 17 19 21 24 24 24
7 7 6 7 8 8 7 7 6 6 7 5 4 3 3 4 4 4 4 5 6 5 4 4 3 3 3 3 3 4 6 8 6 5 6 4 3 6 7 5 6 6 6 7 7 7 7 8 10 9 10 11 12 11 14 12 13 13 14 14 14 15 15 15 14 10 11 13 12 11 10 9 9 10 9 11 11 14 15 16 15 20 23 23 24
7 7 7 7 7 7 7 7 7 7 5 3 5 6 4 2 3 4 4 4 5 4 4 4 4 4 4 4 4 11 10 9 9 10 11 10 8 4 5 5 5 6 6 7 8 7 8 10 10 12 13 13 14 13 13 13 12 13 14 14 14 15 16 15 15 8 10 9 10 13 13 10 10 12 10 10 11 11 10 10 9 11 15 21 23
7 6 7 8 7 6 7 7 7 6 5 3 6 3 2 4 4 4 5 4 4 4 3 3 3 4 4 4 4 6 7 8 8 12 13 12 12 13 12 10 8 5 5 7 8 8 9 9 10 11 12 14 14 14 13 13 12 12 12 12 13 11 12 15 18 15 2 8 14 15 16 12 10 12 11 11 11 11 9 10 14 16 18 19 21
6 6 8 7 6 6 6 7 7 5 4 5 3 1 5 7 7 5 4 4 3 3 2 2 1 3 4 5 4 4 5 6 6 7 10 12 13 13 14 13 13 14 11 5 5 8 9 9 10 11 12 12 14 14 14 14 14 13 12 12 11 11 13 13 13 15 15 14 14 15 17 13 10 10 11 11 10 10 10 13 17 16 18 19 19
6 7 6 7 6 6 7 7 6 4 3 6 6 7 7 8 9 7 4 4 4 3 2 1 1 2 4 5 6 6 5 10 7 6 6 8 11 13 13 13 13 14 14 15 12 7 6 7 9 12 12 13 13 13 15 16 14 15 14 12 11 12 11 13 13 15 16 14 13 14 14 13 11 10 11 10 10 10 11 13 18 18 18 18 19
7 6 6 7 6 6 6 7 5 5 5 7 8 11 11 11 11 8 3 3 3 3 2 1 0 1 3 4 5 6 6 5 5 8 7 7 7 7 8 8 8 11 13 13 13 14 11 7 8 10 13 11 12 13 15 14 15 16 15 14 14 13 13 13 16 16 15 11 12 13 15 12 10 9 11 11 9 9 9 13 17 17 17 17 18
7 7 7 6 5 5 5 6 7 6 4 7 10 13 14 14 13 8 3 3 1 1 1 2 1 2 4 4 4 5 6 7 6 8 7 7 6 7 8 8 8 8 8 9 10 9 9 9 8 9 11 11 10 12 13 12 12 12 12 15 14 13 13 13 12 11 11 10 12 11 10 12 11 10 11 11 8 8 8 12 17 18 17 18 18
5 5 5 6 6 6 5 7 8 6 4 8 11 12 13 13 11 6 4 3 1 1 3 3 3 3 4 4 4 6 6 6 10 13 10 6 5 7 8 8 8 8 8 11 14 14 12 11 10 10 10 12 14 12 13 13 12 12 12 11 10 12 14 12 13 12 12 12 12 9 12 15 10 9 11 9 9 6 5 7 12 10 14 17 17
7 6 5 5 5 6 6 6 8 5 5 7 10 11 10 11 9 6 4 4 3 2 3 4 4 4 4 4 4 5 6 7 11 12 12 8 6 7 7 8 7 7 9 10 14 16 17 18 18 18 18 17 16 16 16 18 15 14 12 11 12 13 13 15 12 13 15 14 10 9 12 15 11 9 11 8 3 6 7 8 7 11 11 9 12
7 6 5 5 4 5 6 5 6 7 5 6 10 10 10 10 8 6 4 5 3 3 3 4 4 4 5 10 8 4 6 7 11 12 11 7 6 6 6 7 9 9 10 9 8 11 16 16 17 18 17 17 16 15 16 16 17 15 12 14 15 13 13 13 15 16 16 12 10 12 13 12 12 8 7 5 1 6 7 7 9 10 11 6 3
7 6 5 6 4 4 5 5 8 7 5 5 9 9 9 8 6 4 5 5 5 4 4 5 4 4 6 6 9 9 7 8 12 12 11 7 5 5 5 6 8 9 10 9 9 12 12 12 13 13 13 14 12 10 12 16 16 16 11 12 13 12 13 14 15 16 14 12 14 17 15 14 11 10 7 4 3 3 8 7 9 10 10 8 6
Wind_Direction
122 152 182 153 161 181 203 226 219 236 201 208 199 242 264 244 239 247 259 269 277 282 283 285 288 287 273 288 286 273 264 257 252 250 223 212 208 215 206 208 212 216 217 218 217 215 214 214 214 215 218 217 212 210 208 213 210 204 210 220 223 224 197 202 207 220 223 224 232 223 232 240 230 233 234 284 221 204 221 217 198 192 193 170 156
163 185 162 165 178 190 172 218 221 243 193 205 203 204 206 205 210 223 234 239 252 260 259 270 272 256 257 283 277 242 248 260 268 232 213 211 213 219 212 210 214 216 219 221 221 220 220 220 224 224 222 223 223 208 211 213 216 209 210 216 220 224 194 205 209 216 227 228 223 209 218 231 262 228 226 249 258 211 223 225 207 194 194 178 166
153 149 150 169 176 132 358 229 249 216 183 186 200 211 257 259 298 312 308 301 295 297 297 300 303 309 312 316 319 332 323 318 309 295 204 219 221 225 228 217 217 220 220 224 225 222 224 225 230 233 235 228 226 208 210 213 214 210 211 217 217 200 193 202 210 211 222 227 219 205 209 224 237 246 227 227 244 228 228 230 218 201 189 184 172
143 150 145 55 27 44 256 259 297 268 185 161 347 335 335 317 310 296 277 258 272 292 284 296 305 297 304 305 307 303 285 303 312 305 248 215 220 229 232 232 228 226 226 228 231 232 221 234 242 240 248 243 233 214 214 213 210 208 206 214 219 189 194 204 208 208 212 224 219 205 209 217 226 234 244 227 231 247 221 224 220 207 192 184 179
175 174 156 164 56 6 340 2 340 342 213 63 45 11 18 360 334 332 328 352 348 332 333 337 325 318 320 305 313 310 294 285 289 293 287 241 221 225 225 232 234 237 234 234 235 239 236 232 240 238 238 244 241 227 219 219 214 208 208 210 216 194 197 204 208 211 214 220 229 212 214 217 221 226 234 227 226 245 220 219 221 212 199 189 180
316 259 188 137 75 176 95 38 23 21 34 82 51 26 8 350 319 341 342 358 346 328 344 335 321 317 314 302 308 295 299 291 272 272 270 282 223 207 219 221 227 232 241 243 240 240 240 237 238 241 245 242 239 240 237 230 223 216 213 213 197 188 197 202 209 214 220 221 223 221 212 218 220 221 221 225 225 242 230 204 218 214 200 192 180
45 61 48 91 123 87 60 38 17 10 47 36 44 13 12 336 337 355 347 352 345 324 333 309 305 311 308 316 308 302 303 289 287 280 280 277 266 234 223 216 218 224 232 237 237 243 244 243 243 241 241 247 244 242 244 246 247 230 222 223 206 195 200 207 208 213 218 222 222 220 215 218 218 218 215 218 223 233 239 208 211 211 205 197 186
64 102 89 64 82 74 38 22 26 18 44 33 43 23 348 356 20 55 19 346 352 331 329 318 312 307 302 301 293 301 302 297 292 290 273 271 271 254 245 239 233 231 233 235 245 250 248 247 244 245 245 245 248 248 247 250 252 257 254 240 225 213 202 209 217 211 214 218 221 219 217 217 217 217 217 216 220 230 229 217 218 214 207 201 191
34 40 57 38 56 62 34 47 32 39 44 30 38 20 22 34 18 26 54 355 346 329 325 324 318 309 308 309 306 309 303 298 299 295 307 276 260 264 263 259 249 244 247 244 249 251 255 255 254 250 249 250 250 253 254 254 254 256 258 257 254 239 214 208 217 209 208 214 219 220 217 218 216 217 217 212 217 224 225 218 216 215 211 204 193
38 49 60 66 79 111 60 81 83 57 41 31 26 20 40 51 28 6 21 15 354 348 328 324 319 317 321 317 312 311 300 302 302 310 314 302 292 276 262 268 271 258 245 244 246 251 255 259 258 257 254 251 249 248 251 252 254 250 246 241 246 252 251 232 219 210 207 213 223 223 219 216 217 215 217 211 213 216 217 219 218 217 211 206 194
37 35 55 59 37 27 43 36 46 51 53 48 36 31 33 29 34 9 5 12 19 2 348 325 320 319 319 313 312 307 304 303 333 329 321 301 295 291 299 279 274 273 263 259 252 252 256 256 260 261 259 253 248 245 247 250 253 252 251 245 231 238 243 242 232 220 214 218 223 222 219 213 215 214 215 211 211 210 212 216 218 218 215 209 201
42 43 59 62 59 54 54 46 48 57 57 53 42 39 35 30 25 25 18 9 24 11 0 346 328 326 317 313 308 308 314 331 356 356 342 327 310 304 298 297 287 277 273 266 261 253 252 256 255 254 254 255 251 249 248 249 250 253 253 249 249 236 240 246 237 227 216 219 224 220 216 212 212 212 215 213 209 209 208 213 218 221 220 210 202
61 63 59 65 64 58 54 47 52 61 62 61 56 49 41 41 30 30 29 23 21 10 359 343 7 342 315 308 317 320 330 16 33 8 355 336 323 320 312 323 314 308 291 280 266 254 249 254 255 256 256 253 255 252 251 249 250 251 252 253 249 244 240 234 238 234 226 214 210 217 213 213 209 211 213 216 211 210 208 211 213 222 222 214 207
65 68 65 58 58 56 51 48 51 60 68 61 53 48 40 34 22 30 26 41 38 11 1 355 19 338 325 329 324 327 326 12 20 355 350 336 344 346 351 347 343 331 317 309 294 282 276 275 273 271 268 265 259 259 261 258 254 250 250 250 255 251 243 242 244 244 237 222 210 207 208 210 209 207 209 215 214 211 210 211 211 216 224 216 214
59 59 60 52 56 60 55 54 52 55 59 52 47 45 38 36 30 35 9 30 50 23 12 19 4 315 280 25 347 349 339 357 5 346 343 331 354 2 11 14 359 354 344 332 323 322 317 306 294 285 279 272 269 265 261 256 252 249 249 251 250 257 251 245 241 239 232 223 219 209 208 209 207 208 209 212 215 213 213 211 211 212 217 218 207
58 62 62 55 53 60 60 58 56 53 63 61 49 46 35 33 33 36 39 42 21 16 15 10 21 360 9 347 274 302 314 20 335 309 357 346 14 2 19 7 1 353 359 3 350 339 328 313 297 287 276 267 267 265 261 261 260 257 253 251 242 236 247 249 250 246 243 233 226 220 207 207 207 206 211 213 214 215 212 213 211 210 213 218 211
61 61 63 59 54 55 59 59 56 49 54 57 52 45 44 44 42 49 42 55 44 14 10 13 24 16 21 358 348 6 3 317 323 282 12 348 352 18 12 15 360 347 357 359 353 355 344 333 322 305 288 275 264 258 257 257 261 260 260 253 247 241 236 243 249 249 241 237 230 231 217 209 207 205 208 211 212 214 211 213 213 212 212 214 213
61 59 58 59 56 53 55 57 55 51 53 58 55 52 45 46 39 54 49 35 78 45 19 5 28 24 28 33 24 352 330 317 6 313 341 252 49 29 15 18 358 341 0 358 356 347 344 339 331 327 320 306 289 280 272 264 256 264 267 261 252 248 246 245 246 248 248 239 232 226 224 212 206 203 204 207 209 214 214 213 213 212 213 212 214
60 60 58 57 58 54 56 59 60 59 56 57 56 55 54 50 45 53 51 49 51 63 40 360 359 25 17 17 21 5 356 14 358 318 327 357 32 16 3 11 352 345 6 354 352 344 339 336 335 341 341 337 323 313 311 306 302 294 282 277 274 267 256 247 246 249 250 248 238 227 223 217 207 202 203 206 208 210 212 214 213 212 213 214 212
68 58 54 59 61 58 59 60 61 57 60 60 62 61 61 50 52 55 56 53 59 69 59 31 52 0 359 17 12 5 13 37 26 342 305 317 313 331 233 1 344 12 2 358 351 342 336 341 345 354 352 355 353 348 339 331 322 310 308 307 303 288 279 263 254 251 252 258 254 234 233 229 217 206 205 206 209 208 208 212 213 213 212 213 211
62 65 61 59 64 66 62 62 61 57 59 62 62 63 62 57 45 44 49 52 59 73 74 53 53 40 8 12 7 7 351 16 14 9 349 322 311 339 332 338 359 44 353 3 350 334 341 339 356 352 354 12 8 5 1 356 348 336 329 322 307 297 283 273 264 262 252 245 250 250 237 237 237 219 209 208 206 207 206 206 211 211 213 208 210
62 64 65 66 67 64 60 59 58 59 61 63 67 63 57 54 48 48 41 54 43 60 71 62 49 36 43 26 32 4 25 25 25 15 352 9 332 325 340 340 334 337 0 350 346 332 343 336 359 351 359 18 9 4 0 356 351 345 343 340 334 324 308 290 281 273 269 258 246 247 253 240 236 231 216 213 208 206 208 203 207 210 210 209 208
77 66 69 64 59 54 55 57 57 57 56 60 62 64 56 52 45 45 46 45 34 43 41 38 40 41 39 38 36 33 29 27 22 15 11 349 335 326 331 337 323 317 345 347 333 338 331 350 358 350 8 13 5 357 353 346 344 342 341 337 333 332 327 312 293 281 274 272 266 250 243 247 246 243 228 213 215 207 208 207 207 208 210 209 207
71 68 57 53 57 54 55 57 57 57 61 66 65 61 54 47 45 48 43 39 38 42 43 48 50 52 47 43 45 40 35 30 22 20 22 355 352 334 335 331 312 308 321 330 323 341 322 7 354 349 6 7 357 351 345 342 335 338 337 331 329 330 328 325 315 298 283 274 270 260 248 246 246 245 240 229 219 218 214 211 211 210 208 210 208
69 72 57 60 64 62 58 60 62 65 70 67 62 59 54 51 50 49 50 51 52 57 59 55 54 54 52 44 42 40 37 27 24 32 24 12 9 342 332 330 312 313 325 334 332 328 328 1 352 346 3 357 348 348 342 337 333 331 334 329 331 332 332 331 329 320 304 288 274 267 251 245 242 242 241 236 229 221 221 218 214 211 209 207 210
87 85 87 73 65 66 69 71 73 74 74 72 65 58 54 54 49 50 50 49 54 55 57 58 54 52 49 49 41 36 35 25 27 32 27 18 9 355 331 327 313 309 316 332 331 336 336 350 349 343 355 352 344 338 338 332 330 330 332 331 327 327 326 325 324 325 319 306 290 276 263 251 243 239 239 243 239 234 224 219 218 214 213 209 209
98 102 83 70 71 72 74 74 73 74 71 67 59 51 46 42 41 45 50 49 53 56 56 57 55 51 48 45 41 38 27 22 27 31 24 25 3 350 350 344 333 322 324 326 328 347 327 326 348 338 353 343 340 334 331 331 327 328 330 327 321 322 323 323 324 323 321 316 305 289 274 262 253 244 235 232 228 234 227 220 214 213 212 212 209
89 78 73 86 79 73 67 64 59 55 55 59 53 45 42 58 60 60 59 54 58 59 63 62 58 54 50 43 46 42 30 22 26 26 21 19 3 359 359 357 346 330 335 327 342 333 342 333 332 3 347 339 329 328 324 324 324 326 326 321 321 320 322 321 322 321 320 318 314 303 289 270 253 247 243 233 215 225 226 225 215 213 213 212 209
85 86 85 78 77 72 67 62 59 54 47 43 47 55 62 64 65 64 63 59 64 62 62 63 58 55 48 43 45 42 34 22 22 24 19 15 7 4 7 4 352 342 339 326 331 336 335 352 330 331 340 326 323 325 326 324 321 322 321 319 317 316 317 322 322 321 320 321 322 317 302 285 268 253 252 245 239 232 217 229 224 217 213 213 213
87 86 81 74 68 67 67 62 57 53 50 51 56 62 69 67 68 68 70 71 67 62 60 60 55 51 47 39 29 37 32 18 22 16 17 15 8 10 15 8 10 357 342 327 316 331 325 326 328 320 324 321 322 323 325 323 319 322 321 320 320 320 324 325 322 320 320 320 320 319 316 303 282 265 257 248 239 234 226 226 223 219 216 215 216
84 81 78 73 72 66 65 60 54 51 48 50 59 65 70 73 69 68 61 66 67 63 56 59 53 49 45 42 33 32 25 15 13 16 14 15 8 17 22 13 14 347 342 330 318 321 337 323 322 318 312 315 318 320 323 322 324 328 324 323 321 322 323 320 320 317 314 315 315 328 335 331 318 290 268 258 247 230 227 223 223 222 220 214 214
85 82 78 78 74 72 63 62 59 53 51 48 55 69 69 67 68 67 61 66 66 63 58 52 53 45 43 42 34 32 20 18 22 24 25 17 11 26 16 355 352 346 343 331 323 319 326 314 311 311 314 312 316 321 321 319 321 322 319 316 317 319 319 317 316 315 314 316 329 332 327 324 318 313 299 277 258 241 231 227 229 226 222 214 205
86 82 82 80 76 73 68 62 60 57 55 54 51 65 71 73 71 72 69 67 68 63 59 51 45 46 42 43 37 32 25 32 28 29 23 12 10 2 355 355 345 339 335 335 322 315 308 311 308 314 314 316 318 321 320 321 319 321 318 314 314 313 313 313 312 313 317 325 325 320 317 315 314 312 309 303 286 264 240 228 227 221 218 216 205
87 87 84 80 77 73 72 67 63 61 60 59 55 63 77 77 74 73 72 69 68 63 56 56 48 43 43 45 40 33 30 33 25 23 7 348 360 355 351 341 336 333 332 328 326 322 322 321 320 320 319 328 317 325 325 325 321 320 319 320 316 311 308 309 312 310 312 314 311 311 309 308 309 307 307 307 294 278 254 229 230 226 220 217 209
84 86 86 82 79 79 74 68 66 61 60 62 57 68 77 83 81 75 70 70 67 63 61 58 54 45 46 47 41 34 23 28 18 0 349 342 338 342 336 327 327 326 328 327 321 328 330 325 324 326 329 327 322 323 322 318 313 315 315 316 315 312 307 306 303 303 306 306 306 306 306 304 302 301 301 299 295 280 258 242 228 217 220 219 214
90 83 80 80 80 78 77 70 66 65 62 62 65 65 73 82 82 76 69 66 64 63 67 67 58 52 49 46 42 32 19 23 4 354 343 339 334 326 322 311 309 313 317 319 330 318 321 323 329 323 323 322 323 321 321 316 315 315 312 306 302 299 304 305 303 304 304 304 306 302 300 299 297 295 294 293 289 279 262 244 235 224 217 215 211
92 92 82 76 80 75 75 74 71 65 63 65 68 63 64 75 80 78 72 69 67 67 66 66 64 61 51 50 39 32 22 19 1 1 346 350 336 325 323 320 323 323 326 327 331 330 325 324 325 324 321 317 317 318 321 327 327 320 315 312 313 309 306 299 296 296 299 299 299 299 297 292 290 289 288 287 285 279 265 248 239 234 225 217 217
95 91 92 83 83 83 79 78 76 73 67 67 67 65 64 72 74 70 71 71 70 69 66 62 60 51 59 50 38 38 27 25 4 352 349 346 338 338 332 327 321 319 321 323 326 332 328 324 322 320 335 330 325 325 328 326 326 326 328 319 310 309 306 302 286 277 285 302 307 305 298 291 286 284 284 283 282 279 270 253 242 236 231 222 216
103 99 93 91 81 84 82 78 73 74 72 66 62 57 57 62 79 76 72 71 71 70 67 61 50 44 41 34 31 27 39 26 10 354 344 343 341 332 327 318 310 309 313 323 328 333 331 327 325 326 327 327 328 326 328 319 309 315 321 325 318 313 299 297 306 303 296 295 289 282 280 281 281 283 283 282 282 285 279 260 244 237 233 227 217
99 99 98 96 91 83 79 78 76 76 73 63 54 50 51 54 80 84 79 79 76 68 63 50 38 31 17 358 336 341 6 29 14 350 350 340 331 320 311 307 304 307 310 314 323 329 331 333 332 333 333 325 326 314 297 311 324 324 330 324 317 317 315 310 299 305 305 300 303 304 294 284 277 273 276 286 290 287 281 269 250 238 233 227 222
99 99 99 97 94 86 77 76 73 66 65 55 50 41 35 46 63 89 80 80 79 77 65 47 28 16 360 350 327 350 357 350 352 351 331 313 302 307 308 307 304 308 305 310 317 323 324 327 329 330 331 333 334 326 336 339 340 331 328 322 311 310 306 305 303 297 293 299 299 296 293 295 294 288 287 286 284 285 285 273 255 241 233 228 225
100 99 94 89 86 88 85 74 68 63 57 48 27 19 16 57 79 99 90 80 84 86 80 54 22 3 350 346 338 359 354 340 337 342 340 332 321 291 281 296 299 305 307 312 317 322 326 331 333 334 338 341 337 333 328 329 326 325 322 323 315 312 310 302 295 289 295 290 299 303 299 295 292 289 281 278 279 277 280 279 253 240 234 229 227
99 98 92 87 84 81 81 78 69 63 52 33 10 359 60 103 117 116 112 99 87 89 83 74 38 11 356 347 347 350 352 337 339 344 340 340 338 338 334 330 322 308 304 316 314 321 330 328 324 331 334 334 335 331 328 325 328 328 321 318 314 312 315 320 319 320 138 334 314 305 299 299 288 285 285 277 276 274 269 267 263 239 232 228 223
97 94 88 89 90 86 82 76 69 60 51 19 3 118 98 103 124 125 124 118 112 105 106 95 33 10 4 359 353 350 340 340 350 345 336 336 342 342 343 343 343 342 341 329 312 323 330 328 327 328 328 333 330 331 329 328 330 327 328 321 315 314 314 314 311 306 314 319 306 300 294 298 291 276 278 276 273 269 266 267 265 247 233 229 222
99 92 95 91 87 86 84 82 73 60 57 22 39 60 74 106 128 130 130 129 122 128 136 151 58 12 5 3 355 349 342 346 351 344 338 337 343 344 346 349 346 347 343 339 336 325 304 315 324 322 327 326 328 329 329 327 322 324 328 322 317 314 309 305 306 306 305 306 301 296 291 298 297 285 276 274 269 269 268 260 258 251 236 228 221
98 96 90 90 90 84 85 86 81 61 53 22 58 72 81 93 110 111 126 130 134 162 188 208 256 319 336 354 353 345 339 342 351 350 343 348 343 346 350 350 347 341 341 340 341 340 339 333 326 321 315 320 316 316 323 323 324 331 329 324 320 313 312 308 301 292 292 306 308 303 296 295 291 291 280 274 263 264 260 257 254 247 235 229 222
110 108 106 98 92 92 90 89 79 62 40 33 67 72 78 85 89 97 91 82 81 214 243 245 250 281 321 328 338 340 337 338 360 356 352 344 345 354 352 351 344 340 337 341 344 340 337 335 330 317 310 310 304 309 313 321 322 321 322 319 313 308 305 300 291 292 299 309 313 302 294 308 304 303 282 280 288 267 257 259 247 240 232 228 225
103 100 92 98 102 99 94 90 84 69 43 45 68 73 80 85 86 83 83 77 53 329 302 288 291 295 312 326 344 347 339 338 356 354 357 350 4 2 355 347 345 341 342 339 338 338 337 335 333 329 319 310 307 307 313 322 326 322 324 320 318 329 324 321 320 321 320 324 320 315 318 302 311 294 291 294 275 282 351 357 344 310 243 225 223
120 115 118 112 112 106 97 91 93 83 60 46 64 71 79 94 92 84 84 73 43 6 323 309 314 319 328 337 350 350 348 347 348 357 356 5 10 4 355 350 344 346 345 340 336 338 339 336 334 333 329 324 319 316 317 324 331 334 336 336 341 337 333 334 330 334 328 325 312 327 313 301 302 294 292 303 9 34 8 359 348 357 349 258 229
126 131 127 113 106 109 107 102 103 95 77 55 65 65 68 73 87 93 90 87 56 23 343 324 313 319 333 347 357 7 356 345 345 3 2 9 15 359 359 354 357 354 344 340 337 340 338 337 337 335 332 332 329 325 324 330 337 351 350 351 342 338 338 336 335 330 320 313 318 329 313 294 294 283 274 223 37 44 6 7 6 3 3 5 228
132 135 131 122 118 107 110 110 95 91 80 58 59 63 65 70 84 87 90 81 57 13 353 339 332 341 338 337 346 359 360 348 353 3 10 14 16 6 354 4 0 356 341 332 343 342 342 342 341 341 340 340 337 335 334 337 343 357 358 351 344 345 341 340 335 329 329 335 332 332 320 307 303 286 253 213 95 54 27 11 18 15 12 8 33